Weather History for Louisa, VA

Change the Weather History Date:

Saturday, August 3, 2013

  Actual Average (KCHO) Record (KCHO)
Temperature  
Mean Temperature 74 °F 75 °F  
Max Temperature 84 °F 85 °F 101 °F (1930)
Min Temperature 64 °F 65 °F 52 °F (1976)
Degree Days  
Heating Degree Days 0 0  
Month to date heating degree days 0  
Since 1 June heating degree days 12  
Since 1 July heating degree days 1  
Cooling Degree Days 9 10  
Month to date cooling degree days 30  
Year to date cooling degree days 660  
Since 1 June cooling degree days 574  
Growing Degree Days 24 (Base 50)    
Moisture  
Dew Point 67 °F    
Average Humidity 81    
Maximum Humidity 94    
Minimum Humidity 48    
Precipitation  
Precipitation 0.00 in 0.15 in 1.11 in (2003)
Month to date precipitation 0.43  
Year to date precipitation 24.95  
Sea Level Pressure  
Sea Level Pressure 29.96 in    
Wind  
Wind Speed 2 mph (WSW)    
Max Wind Speed 6 mph    
Max Gust Speed -    
Visibility 9 miles    
Events Rain    
T = Trace of Precipitation, MM = Missing Value Source: NWS Daily Summary

Daily Weather History Graph

Daily Weather History Graph

Search for Another Location

Airport:

Trip Planner

Search our weather history database for the weather conditions in past years. The results will help you decide how hot, cold, wet, or windy it might be!

Date:

Astronomy

Aug. 03, 2013 Rise Set
Actual Time 6:16 AM EDT 8:18 PM EDT
Civil Twilight 5:47 AM EDT 8:47 PM EDT
Nautical Twilight 5:12 AM EDT 9:22 PM EDT
Astronomical Twilight 4:34 AM EDT 10:01 PM EDT
Moon 3:25 AM EDT (8/3) 5:59 PM EDT (8/3)
Length of Visible Light 14h 59m
Length of Day
14h 01m
Waning Crescent, 9% of the Moon is Illuminated
Aug 3
Waning Crescent
Aug 6
New
Aug 14
First Quarter
Aug 20
Full
Aug 28
Last Quarter

Hourly Weather History & Observations

Time (EDT) Temp. Heat Index Dew Point Humidity Pressure Visibility Wind Dir Wind Speed Gust Speed Precip Events Conditions
12:15 AM 69.8 °F - 64.4 °F 83% 29.99 in 10.0 mi Calm Calm - N/A   Clear
12:35 AM 66.2 °F - 64.4 °F 94% 29.99 in 5.0 mi Calm Calm - N/A   Clear
12:55 AM 64.4 °F - 62.6 °F 94% 29.99 in 4.0 mi SW 3.5 mph - N/A   Clear
1:15 AM 68.0 °F - 64.4 °F 88% 29.98 in 10.0 mi WSW 3.5 mph - N/A   Clear
1:35 AM 66.2 °F - 64.4 °F 94% 29.97 in 3.0 mi SW 3.5 mph - N/A   Clear
1:55 AM 66.2 °F - 64.4 °F 94% 29.97 in 7.0 mi SSW 3.5 mph - N/A   Clear
2:15 AM 69.8 °F - 64.4 °F 83% 29.97 in 7.0 mi SW 3.5 mph - N/A   Clear
2:35 AM 69.8 °F - 64.4 °F 83% 29.97 in 10.0 mi SW 4.6 mph - N/A   Clear
2:55 AM 69.8 °F - 64.4 °F 83% 29.96 in 10.0 mi WSW 3.5 mph - N/A   Clear
3:15 AM 69.8 °F - 64.4 °F 83% 29.96 in 10.0 mi SW 4.6 mph - N/A   Clear
3:35 AM 69.8 °F - 64.4 °F 83% 29.96 in 10.0 mi SW 3.5 mph - N/A   Clear
3:55 AM 69.8 °F - 64.4 °F 83% 29.97 in 10.0 mi SW 3.5 mph - N/A   Clear
4:15 AM 69.8 °F - 64.4 °F 83% 29.97 in 10.0 mi WSW 3.5 mph - N/A   Clear
4:35 AM 69.8 °F - 64.4 °F 83% 29.96 in 10.0 mi SW 3.5 mph - N/A   Clear
4:55 AM 69.8 °F - 64.4 °F 83% 29.97 in 10.0 mi SW 3.5 mph - N/A   Clear
5:15 AM 68.0 °F - 64.4 °F 88% 29.96 in 10.0 mi Calm Calm - N/A   Clear
5:35 AM 64.4 °F - 62.6 °F 94% 29.96 in 4.0 mi Calm Calm - N/A   Clear
5:55 AM 64.4 °F - 62.6 °F 94% 29.96 in 5.0 mi Calm Calm - N/A   Clear
6:15 AM 66.2 °F - 64.4 °F 94% 29.97 in 10.0 mi WSW 3.5 mph - N/A   Clear
6:35 AM 66.2 °F - 64.4 °F 94% 29.97 in 7.0 mi SW 3.5 mph - N/A   Clear
6:55 AM 68.0 °F - 64.4 °F 88% 29.97 in 10.0 mi Calm Calm - N/A   Clear
7:15 AM 68.0 °F - 64.4 °F 88% 29.97 in 10.0 mi Calm Calm - N/A   Clear
7:35 AM 69.8 °F - 64.4 °F 83% 29.98 in 10.0 mi SW 3.5 mph - N/A   Clear
7:55 AM 68.0 °F - 64.4 °F 88% 29.97 in 10.0 mi Calm Calm - N/A   Clear
8:15 AM 69.8 °F - 64.4 °F 83% 29.98 in 10.0 mi Calm Calm - N/A   Clear
8:35 AM 71.6 °F - 66.2 °F 83% 29.97 in 10.0 mi Calm Calm - N/A   Clear
8:55 AM 71.6 °F - 66.2 °F 83% 29.98 in 10.0 mi Calm Calm - N/A   Clear
9:15 AM 71.6 °F - 66.2 °F 83% 29.98 in 10.0 mi Calm Calm - N/A   Clear
9:35 AM 73.4 °F - 66.2 °F 78% 29.98 in 10.0 mi Calm Calm - N/A   Clear
9:55 AM 73.4 °F - 66.2 °F 78% 29.99 in 10.0 mi Calm Calm - N/A   Clear
10:15 AM 73.4 °F - 66.2 °F 78% 29.99 in 10.0 mi Calm Calm - N/A   Clear
10:35 AM 73.4 °F - 68.0 °F 83% 29.99 in 10.0 mi Calm Calm - N/A   Clear
10:55 AM 75.2 °F - 68.0 °F 78% 29.98 in 10.0 mi Calm Calm - N/A Rain Light Rain
11:15 AM 75.2 °F - 68.0 °F 78% 29.97 in 10.0 mi Calm Calm - N/A   Clear
11:35 AM 77.0 °F - 69.8 °F 78% 29.97 in 10.0 mi Calm Calm - N/A   Clear
11:55 AM 78.8 °F - 69.8 °F 74% 29.97 in 10.0 mi WSW 3.5 mph - N/A   Clear
12:15 PM 82.4 °F 85.4 °F 68.0 °F 62% 29.97 in 10.0 mi Calm Calm - N/A   Clear
12:35 PM 80.6 °F 83.2 °F 68.0 °F 65% 29.97 in 10.0 mi NW 5.8 mph - N/A   Clear
12:55 PM 82.4 °F 83.9 °F 64.4 °F 54% 29.97 in 10.0 mi Calm Calm - N/A   Clear
1:15 PM 80.6 °F 82.7 °F 66.2 °F 61% 29.96 in 10.0 mi Calm Calm - N/A   Clear
1:35 PM 80.6 °F 83.9 °F 69.8 °F 70% 29.96 in 10.0 mi Calm Calm - N/A   Scattered Clouds
1:55 PM 80.6 °F 82.7 °F 66.2 °F 61% 29.96 in 10.0 mi Calm Calm - N/A   Clear
2:15 PM 80.6 °F 83.2 °F 68.0 °F 65% 29.96 in 10.0 mi Calm Calm - N/A   Clear
2:35 PM 82.4 °F 84.6 °F 66.2 °F 58% 29.95 in 10.0 mi Calm Calm - N/A   Clear
2:55 PM 82.4 °F 84.6 °F 66.2 °F 58% 29.95 in 10.0 mi Calm Calm - N/A   Clear
3:15 PM 82.4 °F 84.6 °F 66.2 °F 58% 29.94 in 10.0 mi Calm Calm - N/A   Clear
3:35 PM 84.2 °F 86.6 °F 66.2 °F 55% 29.93 in 10.0 mi Calm Calm - N/A   Clear
3:55 PM 84.2 °F 85.0 °F 62.6 °F 48% 29.93 in 10.0 mi North 3.5 mph - N/A   Scattered Clouds
4:15 PM 82.4 °F 83.9 °F 64.4 °F 54% 29.94 in 10.0 mi North 5.8 mph - N/A   Scattered Clouds
4:35 PM 82.4 °F 84.6 °F 66.2 °F 58% 29.94 in 10.0 mi North 5.8 mph - N/A   Mostly Cloudy
4:55 PM 82.4 °F 84.6 °F 66.2 °F 58% 29.94 in 10.0 mi Calm Calm - N/A   Mostly Cloudy
5:15 PM 77.0 °F - 71.6 °F 83% 29.94 in 10.0 mi Calm Calm - N/A   Overcast
5:35 PM 75.2 °F - 71.6 °F 89% 29.94 in 10.0 mi Calm Calm - N/A   Overcast
5:55 PM 75.2 °F - 69.8 °F 83% 29.94 in 10.0 mi Calm Calm - N/A   Overcast
6:15 PM 75.2 °F - 71.6 °F 89% 29.93 in 10.0 mi Calm Calm - N/A   Overcast
6:35 PM 75.2 °F - 71.6 °F 89% 29.93 in 10.0 mi Calm Calm - N/A   Overcast
6:55 PM 77.0 °F - 71.6 °F 83% 29.93 in 10.0 mi Calm Calm - N/A   Mostly Cloudy
7:15 PM 75.2 °F - 71.6 °F 89% 29.94 in 10.0 mi Calm Calm - N/A   Overcast
7:35 PM 75.2 °F - 71.6 °F 89% 29.94 in 10.0 mi Calm Calm - N/A   Light Drizzle
7:55 PM 75.2 °F - 69.8 °F 83% 29.94 in 10.0 mi WSW 4.6 mph - N/A   Overcast
8:15 PM 75.2 °F - 69.8 °F 83% 29.93 in 10.0 mi WSW 3.5 mph - N/A   Overcast
8:35 PM 75.2 °F - 69.8 °F 83% 29.94 in 10.0 mi SW 3.5 mph - N/A   Overcast
8:55 PM 73.4 °F - 69.8 °F 88% 29.94 in 10.0 mi West 3.5 mph - N/A   Overcast
9:15 PM 73.4 °F - 69.8 °F 88% 29.95 in 10.0 mi West 3.5 mph - N/A   Overcast
9:35 PM 73.4 °F - 69.8 °F 88% 29.95 in 10.0 mi Calm Calm - N/A   Scattered Clouds
9:55 PM 71.6 °F - 69.8 °F 94% 29.95 in 10.0 mi Calm Calm - N/A   Mostly Cloudy
10:15 PM 71.6 °F - 69.8 °F 94% 29.95 in 10.0 mi Calm Calm - N/A   Scattered Clouds
10:35 PM 69.8 °F - 68.0 °F 94% 29.95 in 7.0 mi Calm Calm - N/A   Scattered Clouds
10:55 PM 71.6 °F - 68.0 °F 88% 29.95 in 10.0 mi Calm Calm - N/A   Mostly Cloudy
11:15 PM 69.8 °F - 66.2 °F 88% 29.95 in 5.0 mi Calm Calm - N/A   Scattered Clouds
11:35 PM 68.0 °F - 66.2 °F 94% 29.95 in 7.0 mi Calm Calm - N/A   Scattered Clouds
11:55 PM 69.8 °F - 68.0 °F 94% 29.94 in 10.0 mi NNW 4.6 mph - N/A   Scattered Clouds